Вернуться в каталог

STARLINK-31021

АктивенСвязьVLEO
NORAD 58518·PAYLOAD·🇺🇸 United States

Запущен Dec 7, 2023 с Cape Canaveral Space Force Station

Loading…

Ближайшие Пролёты (ближайшие 24 часа)

TLE

СвежийSource: CelesTrak SupGP

Эпоха: Sep 14, 2026, 21:03 UTC

1 58518C 23191L   26257.87756944 -.00059463  00000+0 -21543-2 0  2577
2 58518  42.9996 115.1939 0001446 269.2181  55.0843 15.27599606    17

Отслеживайте STARLINK-31021 в реальном времени с AllMySat

Download on the App Store